STARLINK-34532, 64607

Orbit data source: Space-Track

STARLINK-34532, 64607 is a payload satellite owned by SpaceX/Seattle (US) in LEO that was launched on Wed, 25 Jun 2025 UTC via an FALCON 9 launch vehicle from the Air Force Eastern Test Range (AFETR). Payload-class satellites include a variety of spacecraft equipped with specific instruments for various scientific and technological missions. These include communications satellites like Starlink; space stations such as the ISS; scientific satellites like the Hubble; Earth observation satellites from companies like Planet Labs, Umbra, and HawkEye 360; GPS; miniature CubeSats for education and research; and military/defense satellites.

Loading next visibility...
Identifier
64607, 2025-137P
Orbit
LEO
Country
Flag of USUS
Related business
Manufacturer
SpaceX/Seattle
Mission
Operational Commercial Communications
Bus & Motor
STARLINK V2MO, Unknown motor
Mass
575 kg wet, ~530 kg dry
Launch date (UTC)
2025-06-25 (1 year ago)
Launch vehicle
FALCON 9
Launch site
Air Force Eastern Test Range (AFETR)
Object type
Payload
Rocket body
Debris
Shape & HBR
Box + 2 Pan, 17.7 m
Radar Cross Section
36.964 m², Large (>1 m²)

Expand to show TLE details & history
Last TLE update: 11 hours ago

TLE from 11 hours ago
0 STARLINK-34532
1 64607U 25137P   26171.40650697  .00025013  00000-0  74881-3 0  9997
2 64607  53.1603 227.9010 0001240  87.6217 272.4927 15.34406702 56323
Epoch: 2026-06-20T09:45Z
TLE epoch observation values (Epoch: 2026-06-20T09:45:22.202Z)
Latitude
-0.00005°
Longitude
172.93687°
Altitude
463.548 km
Speed
7.636 km/s
True Right ascension
15h 11m 36s
True Declination
0° 00' 00"
Sunlit
Object was in full shadow at epoch
Visualization orbit readout
Latitude
Unknown
Longitude
Unknown
Altitude
Unknown
Speed
Unknown
Apparent Right ascension
Unknown
Apparent Declination
Unknown
Sunlit
N/A
Visualization observer readout
Local Sidereal Time
07:12:35
Azimuth
Unknown
Elevation
Unknown
Doppler factor
Unknown
Orbital elements
Apogee altitude
463.788 km
Perigee altitude
462.092 km
Semi-major axis
6,841.077 km
Eccentricity
0.00012
Inclination
53.1603°
RAAN
227.901°
Arg. of periapsis
87.6217°
True anomaly
272.4785°
Mean anomaly
272.4927°
Eccentric anomaly
272.4856°
Mean motion
3.8358 °/min
Orbital period
93.85 mins
BSTAR
0.00074881
Loading maneuver chart data...
Computing Atmospheric mass density...
Loading historical data...
Loading historical data...
Loading historical data...
Loading historical data...
Loading historical data...
Loading historical data...
Loading historical data...

Documentation

Showing up to 5 results
|